| time (UTC) | temp F | wind direction | speed MPH | gust MPH | rain 1hr in | rain 24hr in | rain mn in | humidity % | barometer mb |
| 20260505164558 | 57 | 0 | 1.0 | 3.0 | 0.00 | 0.00 | 0.00 | 78 | 1016.6 |
| 20260505163053 | 56 | 234 | 1.0 | 3.0 | 0.00 | 0.00 | 0.00 | 79 | 1016.5 |
| 20260505161555 | 55 | 0 | 1.0 | 3.0 | 0.00 | 0.00 | 0.00 | 81 | 1016.5 |
| 20260505153053 | 55 | 0 | 0.0 | 2.0 | 0.00 | 0.00 | 0.00 | 82 | 1016.3 |
| 20260505151553 | 55 | 202 | 0.0 | 2.0 | 0.00 | 0.00 | 0.00 | 83 | 1016.4 |
| 20260505150108 | 54 | 240 | 1.0 | 4.0 | 0.00 | 0.00 | 0.00 | 83 | 1016.4 |
| 20260505124556 | 54 | 0 | 1.0 | 4.0 | 0.00 | 0.00 | 0.00 | 84 | 1015.2 |
| 20260505123056 | 54 | 184 | 2.0 | 4.0 | 0.00 | 0.00 | 0.00 | 83 | 1015.2 |
| 20260505121620 | 54 | 256 | 2.0 | 4.0 | 0.00 | 0.00 | 0.00 | 83 | 1015.2 |
| 20260505120053 | 54 | 234 | 2.0 | 7.0 | 0.00 | 0.00 | 0.00 | 83 | 1015.2 |
| 20260505114550 | 54 | 219 | 3.0 | 6.0 | 0.00 | 0.00 | 0.00 | 83 | 1015.1 |
| 20260505113057 | 54 | 248 | 2.0 | 6.0 | 0.00 | 0.00 | 0.00 | 82 | 1015.0 |
| 20260505111554 | 54 | 215 | 3.0 | 7.0 | 0.00 | 0.00 | 0.00 | 83 | 1015.0 |
| 20260505101551 | 54 | 194 | 1.0 | 4.0 | 0.00 | 0.00 | 0.00 | 84 | 1014.7 |
| 20260505100123 | 53 | 227 | 3.0 | 5.0 | 0.00 | 0.00 | 0.00 | 84 | 1014.7 |
| 20260505094548 | 54 | 250 | 3.0 | 6.0 | 0.00 | 0.00 | 0.00 | 84 | 1014.7 |
| 20260505093049 | 54 | 227 | 3.0 | 7.0 | 0.00 | 0.00 | 0.00 | 84 | 1014.6 |
| 20260505091615 | 53 | 202 | 2.0 | 5.0 | 0.00 | 0.00 | 0.00 | 85 | 1014.6 |
| 20260505090100 | 53 | 165 | 2.0 | 4.0 | 0.00 | 0.00 | 0.00 | 85 | 1014.5 |
| 20260505084550 | 53 | 197 | 1.0 | 3.0 | 0.00 | 0.00 | 0.00 | 85 | 1014.4 |
| 20260505083054 | 53 | 192 | 1.0 | 5.0 | 0.00 | 0.00 | 0.00 | 84 | 1014.4 |
| 20260505081552 | 53 | 245 | 1.0 | 4.0 | 0.00 | 0.00 | 0.00 | 85 | 1014.3 |
| 20260505080054 | 53 | 229 | 2.0 | 5.0 | 0.00 | 0.00 | 0.00 | 85 | 1014.3 |
| 20260505074553 | 53 | 206 | 2.0 | 6.0 | 0.00 | 0.00 | 0.00 | 84 | 1014.2 |
| 20260505073058 | 53 | 197 | 2.0 | 5.0 | 0.00 | 0.00 | 0.00 | 84 | 1014.0 |
| 20260505071552 | 54 | 191 | 2.0 | 5.0 | 0.00 | 0.00 | 0.00 | 84 | 1013.9 |
| 20260505070052 | 54 | 190 | 1.0 | 5.0 | 0.00 | 0.00 | 0.00 | 83 | 1013.8 |
| 20260505064552 | 54 | 186 | 2.0 | 5.0 | 0.00 | 0.00 | 0.00 | 83 | 1013.7 |
| 20260505063054 | 54 | 218 | 1.0 | 3.0 | 0.00 | 0.00 | 0.00 | 83 | 1013.6 |
| 20260505061549 | 54 | 246 | 4.0 | 7.0 | 0.00 | 0.00 | 0.00 | 83 | 1013.6 |
| 20260505060056 | 54 | 242 | 4.0 | 8.0 | 0.00 | 0.00 | 0.00 | 83 | 1013.5 |
| 20260505054616 | 55 | 228 | 6.0 | 10.0 | 0.00 | 0.00 | 0.00 | 82 | 1013.6 |
| 20260505053053 | 55 | 246 | 9.0 | 13.0 | 0.00 | 0.00 | 0.00 | 81 | 1013.3 |
| 20260505051552 | 55 | 243 | 10.0 | 16.0 | 0.00 | 0.00 | 0.00 | 79 | 1013.3 |
| 20260505041601 | 57 | 273 | 12.0 | 16.0 | 0.00 | 0.00 | 0.00 | 76 | 1012.6 |
| 20260505040052 | 57 | 217 | 9.0 | 14.0 | 0.00 | 0.00 | 0.00 | 76 | 1012.3 |
| 20260505034553 | 58 | 257 | 9.0 | 15.0 | 0.00 | 0.00 | 0.00 | 74 | 1012.2 |
| 20260505033053 | 59 | 254 | 10.0 | 15.0 | 0.00 | 0.00 | 0.00 | 73 | 1012.0 |
| 20260505031555 | 60 | 230 | 7.0 | 15.0 | 0.00 | 0.00 | 0.00 | 71 | 1011.8 |
| 20260505030107 | 62 | 255 | 6.0 | 14.0 | 0.00 | 0.00 | 0.00 | 69 | 1011.5 |
| 20260505024607 | 63 | 279 | 7.0 | 16.0 | 0.00 | 0.00 | 0.00 | 68 | 1011.2 |
| 20260505023104 | 65 | 252 | 6.0 | 14.0 | 0.00 | 0.00 | 0.00 | 67 | 1011.0 |
| 20260505021601 | 66 | 244 | 8.0 | 14.0 | 0.00 | 0.00 | 0.00 | 65 | 1011.0 |
| 20260505014556 | 68 | 242 | 8.0 | 12.0 | 0.00 | 0.00 | 0.00 | 63 | 1011.0 |
| 20260505013056 | 70 | 259 | 7.0 | 12.0 | 0.00 | 0.00 | 0.00 | 61 | 1011.0 |
| 20260505011557 | 70 | 282 | 8.0 | 14.0 | 0.00 | 0.00 | 0.00 | 60 | 1011.0 |
| 20260505010108 | 72 | 276 | 7.0 | 12.0 | 0.00 | 0.00 | 0.00 | 58 | 1011.1 |
| 20260505004553 | 73 | 227 | 4.0 | 11.0 | 0.00 | 0.00 | 0.00 | 57 | 1011.1 |
| 20260505003104 | 73 | 190 | 5.0 | 8.0 | 0.00 | 0.00 | 0.00 | 57 | 1011.1 |
| 20260505001556 | 73 | 210 | 3.0 | 9.0 | 0.00 | 0.00 | 0.00 | 57 | 1011.0 |
| 20260505000100 | 72 | 112 | 3.0 | 10.0 | 0.00 | 0.00 | 0.00 | 61 | 1011.3 |
| 20260504234554 | 72 | 163 | 6.0 | 11.0 | 0.00 | 0.00 | 0.00 | 61 | 1011.4 |
| 20260504233054 | 72 | 140 | 6.0 | 11.0 | 0.00 | 0.00 | 0.00 | 60 | 1011.5 |
| 20260504231551 | 72 | 148 | 5.0 | 10.0 | 0.00 | 0.00 | 0.00 | 60 | 1011.5 |
| 20260504230109 | 71 | 157 | 5.0 | 11.0 | 0.00 | 0.00 | 0.00 | 62 | 1011.8 |
| 20260504224606 | 70 | 160 | 5.0 | 12.0 | 0.00 | 0.00 | 0.00 | 61 | 1011.9 |
| 20260504223051 | 70 | 172 | 7.0 | 13.0 | 0.00 | 0.00 | 0.00 | 62 | 1012.0 |
| 20260504221551 | 69 | 125 | 5.0 | 13.0 | 0.00 | 0.00 | 0.00 | 62 | 1012.2 |
| 20260504220057 | 69 | 180 | 4.0 | 10.0 | 0.00 | 0.00 | 0.00 | 62 | 1012.3 |
| 20260504214550 | 68 | 134 | 4.0 | 12.0 | 0.00 | 0.00 | 0.00 | 63 | 1012.5 |
| 20260504213058 | 68 | 148 | 6.0 | 12.0 | 0.00 | 0.00 | 0.00 | 62 | 1012.8 |
| 20260504211557 | 67 | 107 | 6.0 | 10.0 | 0.00 | 0.00 | 0.00 | 64 | 1012.9 |
| 20260504210104 | 67 | 146 | 8.0 | 13.0 | 0.00 | 0.00 | 0.00 | 64 | 1013.1 |
| 20260504204602 | 66 | 155 | 6.0 | 11.0 | 0.00 | 0.00 | 0.00 | 67 | 1013.4 |
| 20260504203049 | 65 | 121 | 5.0 | 11.0 | 0.00 | 0.00 | 0.00 | 67 | 1013.6 |
| 20260504201552 | 65 | 128 | 5.0 | 11.0 | 0.00 | 0.00 | 0.00 | 67 | 1013.6 |
| 20260504194559 | 64 | 165 | 4.0 | 11.0 | 0.00 | 0.00 | 0.00 | 68 | 1013.9 |
| 20260504193056 | 63 | 169 | 7.0 | 11.0 | 0.00 | 0.00 | 0.00 | 69 | 1013.9 |
| 20260504191619 | 62 | 138 | 7.0 | 15.0 | 0.00 | 0.00 | 0.00 | 71 | 1014.0 |
| 20260504190101 | 61 | 212 | 5.0 | 10.0 | 0.00 | 0.00 | 0.00 | 72 | 1014.1 |
| 20260504184555 | 61 | 190 | 6.0 | 9.0 | 0.00 | 0.00 | 0.00 | 73 | 1014.2 |
| 20260504183050 | 60 | 178 | 8.0 | 13.0 | 0.00 | 0.00 | 0.00 | 74 | 1014.1 |
| 20260504181556 | 60 | 150 | 6.0 | 14.0 | 0.00 | 0.00 | 0.00 | 75 | 1014.1 |
| 20260504180058 | 60 | 217 | 6.0 | 12.0 | 0.00 | 0.00 | 0.00 | 74 | 1014.0 |
| 20260504174556 | 59 | 180 | 6.0 | 12.0 | 0.00 | 0.00 | 0.00 | 75 | 1014.1 |
| 20260504173052 | 59 | 178 | 6.0 | 9.0 | 0.00 | 0.00 | 0.00 | 77 | 1014.0 |
| 20260504171550 | 58 | 186 | 5.0 | 11.0 | 0.00 | 0.00 | 0.00 | 76 | 1013.9 |